Year,Month,Day,Hour,Minute,Value (Times are PST for temperature in C)
2010,09,20,20,13,11.40
2010,09,20,20,14,11.40
2010,09,20,20,15,11.40
2010,09,20,20,16,11.40
2010,09,20,20,17,11.40
2010,09,20,20,18,11.30
2010,09,20,20,19,11.30
2010,09,20,20,20,11.30
2010,09,20,20,21,11.20
2010,09,20,20,22,11.20
2010,09,20,20,23,11.20
2010,09,20,20,24,11.10
2010,09,20,20,25,11.10
2010,09,20,20,26,11.10
2010,09,20,20,27,11.10
2010,09,20,20,28,11.10
2010,09,20,20,29,11.00
2010,09,20,20,30,10.90
2010,09,20,20,31,10.90
2010,09,20,20,32,10.90
2010,09,20,20,33,10.90
2010,09,20,20,34,10.80
2010,09,20,20,35,10.80
2010,09,20,20,36,10.80
2010,09,20,20,37,10.70
2010,09,20,20,38,10.70
2010,09,20,20,39,10.70
2010,09,20,20,40,10.70
2010,09,20,20,41,10.60
2010,09,20,20,42,10.60
2010,09,20,20,43,10.60
2010,09,20,20,44,10.60
2010,09,20,20,45,10.60
2010,09,20,20,46,10.60
2010,09,20,20,47,10.70
2010,09,20,20,48,10.90
2010,09,20,20,49,10.90
2010,09,20,20,50,10.90
2010,09,20,20,51,10.90
2010,09,20,20,52,11.00
2010,09,20,20,53,11.00
2010,09,20,20,54,10.90
2010,09,20,20,55,10.90
2010,09,20,20,56,10.90
2010,09,20,20,57,10.90
2010,09,20,20,58,10.90
2010,09,20,20,59,10.90
2010,09,20,21,00,10.90
2010,09,20,21,01,10.90
2010,09,20,21,02,10.90
2010,09,20,21,03,10.90
2010,09,20,21,04,10.90
2010,09,20,21,05,10.90
2010,09,20,21,06,10.90
2010,09,20,21,07,10.90
2010,09,20,21,08,10.90
2010,09,20,21,09,10.90
2010,09,20,21,10,10.90
2010,09,20,21,11,10.90
2010,09,20,21,12,10.90
2010,09,20,21,13,10.90
2010,09,20,21,14,10.90
2010,09,20,21,15,10.90
2010,09,20,21,16,10.90
2010,09,20,21,17,10.90
2010,09,20,21,18,10.90
2010,09,20,21,19,10.90
2010,09,20,21,20,10.90
2010,09,20,21,21,10.90
2010,09,20,21,22,11.00
2010,09,20,21,23,11.10
2010,09,20,21,24,11.10
2010,09,20,21,25,11.10
2010,09,20,21,26,11.10
2010,09,20,21,27,11.10
2010,09,20,21,28,11.10
2010,09,20,21,29,11.20
2010,09,20,21,30,11.20
2010,09,20,21,31,11.10
2010,09,20,21,32,11.10
2010,09,20,21,33,11.10
2010,09,20,21,34,11.10
2010,09,20,21,35,11.10
2010,09,20,21,36,11.10
2010,09,20,21,37,11.10
2010,09,20,21,38,11.00
2010,09,20,21,39,10.90
2010,09,20,21,40,10.90
2010,09,20,21,41,10.90
2010,09,20,21,42,10.90
2010,09,20,21,43,10.90
2010,09,20,21,44,10.90
2010,09,20,21,45,10.80
2010,09,20,21,46,10.80
2010,09,20,21,47,10.70
2010,09,20,21,48,10.70
2010,09,20,21,49,10.70
2010,09,20,21,50,10.70
2010,09,20,21,51,10.60
2010,09,20,21,52,10.70
2010,09,20,21,53,10.80
2010,09,20,21,54,10.80
2010,09,20,21,55,10.90
2010,09,20,21,56,10.90
2010,09,20,21,57,10.90
2010,09,20,21,58,10.90
2010,09,20,21,59,10.90
2010,09,20,22,00,10.90
2010,09,20,22,01,10.90
2010,09,20,22,02,10.90
2010,09,20,22,03,10.90
2010,09,20,22,04,10.90
2010,09,20,22,05,10.90
2010,09,20,22,06,10.80
2010,09,20,22,07,10.80
2010,09,20,22,08,10.70
2010,09,20,22,09,10.70
2010,09,20,22,10,10.70
2010,09,20,22,11,10.70
2010,09,20,22,12,10.60
2010,09,20,22,13,10.60
2010,09,20,22,14,10.60
2010,09,20,22,15,10.60
2010,09,20,22,16,10.60
2010,09,20,22,17,10.60
2010,09,20,22,18,10.60
2010,09,20,22,19,10.60
2010,09,20,22,20,10.60
2010,09,20,22,21,10.60
2010,09,20,22,22,10.60
2010,09,20,22,23,10.60
2010,09,20,22,24,10.60
2010,09,20,22,25,10.60
2010,09,20,22,26,10.60
2010,09,20,22,27,10.70
2010,09,20,22,28,10.70
2010,09,20,22,29,10.70
2010,09,20,22,30,10.80
2010,09,20,22,31,10.90
2010,09,20,22,32,10.90
2010,09,20,22,33,11.00
2010,09,20,22,34,11.10
2010,09,20,22,35,11.20
2010,09,20,22,36,11.30
2010,09,20,22,37,11.40
2010,09,20,22,38,11.40
2010,09,20,22,39,11.60
2010,09,20,22,40,11.60
2010,09,20,22,41,11.70
2010,09,20,22,42,11.70
2010,09,20,22,43,11.70
2010,09,20,22,44,11.80
2010,09,20,22,45,11.80
2010,09,20,22,46,11.80
2010,09,20,22,47,11.80
2010,09,20,22,48,11.90
2010,09,20,22,49,11.90
2010,09,20,22,50,11.90
2010,09,20,22,51,11.90
2010,09,20,22,52,11.90
2010,09,20,22,53,11.90
2010,09,20,22,54,11.90
2010,09,20,22,55,12.00
2010,09,20,22,56,12.00
2010,09,20,22,57,12.00
2010,09,20,22,58,12.10
2010,09,20,22,59,12.10
2010,09,20,23,00,12.00
2010,09,20,23,01,12.00
2010,09,20,23,02,12.00
2010,09,20,23,03,12.00
2010,09,20,23,04,11.90
2010,09,20,23,05,11.90
2010,09,20,23,06,11.90
2010,09,20,23,07,11.90
2010,09,20,23,08,11.80
2010,09,20,23,09,11.80
2010,09,20,23,10,11.80
2010,09,20,23,11,11.80
2010,09,20,23,12,11.80
2010,09,20,23,13,11.80
2010,09,20,23,14,11.70
2010,09,20,23,15,11.70
2010,09,20,23,16,11.60
2010,09,20,23,17,11.60
2010,09,20,23,18,11.60
2010,09,20,23,19,11.60
2010,09,20,23,20,11.60
2010,09,20,23,21,11.60
2010,09,20,23,22,11.60
2010,09,20,23,23,11.60
2010,09,20,23,24,11.50
2010,09,20,23,25,11.40
2010,09,20,23,26,11.40
2010,09,20,23,27,11.40
2010,09,20,23,28,11.40
2010,09,20,23,29,11.40
2010,09,20,23,30,11.40
2010,09,20,23,31,11.40
2010,09,20,23,32,11.30
2010,09,20,23,33,11.30
2010,09,20,23,34,11.30
2010,09,20,23,35,11.30
2010,09,20,23,36,11.30
2010,09,20,23,37,11.30
2010,09,20,23,38,11.30
2010,09,20,23,39,11.30
2010,09,20,23,40,11.20
2010,09,20,23,41,11.20
2010,09,20,23,42,11.20
2010,09,20,23,43,11.10
2010,09,20,23,44,11.10
2010,09,20,23,45,11.10
2010,09,20,23,46,11.10
2010,09,20,23,47,11.10
2010,09,20,23,48,11.00
2010,09,20,23,49,10.90
2010,09,20,23,50,11.00
2010,09,20,23,51,11.10
2010,09,20,23,52,11.10
2010,09,20,23,53,11.00
2010,09,20,23,54,10.90
2010,09,20,23,55,10.90
2010,09,20,23,56,10.90
2010,09,20,23,57,10.90
2010,09,20,23,58,10.90
2010,09,20,23,59,10.90
